Date,Time,Wetness (Wet Dry or Ice),Wind Speed (m/s),Temperature (C),Humidity (%),Pressure (mb),Radiation (W/m^2)
2020-08-16,22:20:00,DRY,5.13,19.67,9.0,778.00,1.3
2020-08-16,22:25:00,DRY,3.80,19.90,10.5,778.50,1.9
2020-08-16,22:30:00,DRY,2.03,19.50,9.0,778.33,0.6
2020-08-16,22:35:00,DRY,4.85,19.50,11.5,778.50,0.9
2020-08-16,22:40:00,DRY,3.67,19.73,11.3,778.33,1.5
2020-08-16,22:45:00,DRY,2.80,19.60,11.5,778.50,1.2
2020-08-16,22:50:00,DRY,2.40,19.37,11.0,778.67,1.3
2020-08-16,22:55:00,DRY,3.60,19.30,13.0,778.00,1.5
2020-08-16,23:00:00,DRY,3.90,19.57,11.0,778.67,1.1
2020-08-16,23:05:00,DRY,3.60,19.55,11.0,778.00,1.2
2020-08-16,23:10:00,DRY,3.40,19.60,10.0,778.33,0.7
2020-08-16,23:15:00,DRY,2.15,19.45,8.5,778.00,1.5
2020-08-16,23:20:00,DRY,3.43,19.50,9.3,778.67,1.2
2020-08-16,23:25:00,DRY,2.95,19.35,9.5,779.00,1.6
2020-08-16,23:30:00,DRY,2.87,19.43,9.3,778.33,1.7
2020-08-16,23:35:00,DRY,2.35,19.60,16.0,779.00,1.0
2020-08-16,23:40:00,DRY,2.97,19.50,14.3,778.67,1.8
2020-08-16,23:45:00,DRY,3.30,19.55,13.0,778.50,1.2
2020-08-16,23:50:00,DRY,2.80,19.57,11.0,778.33,1.8
2020-08-16,23:55:00,DRY,2.70,19.55,11.5,778.00,1.1
2020-08-17,00:00:00,DRY,2.97,19.53,14.0,778.00,1.5
2020-08-17,00:05:00,DRY,2.30,19.40,15.0,778.50,0.9
2020-08-17,00:10:00,DRY,2.43,19.40,15.7,778.33,1.7
2020-08-17,00:15:00,DRY,2.35,19.40,14.5,778.00,1.7
2020-08-17,00:20:00,DRY,1.70,19.37,9.7,778.00,1.5
2020-08-17,00:25:00,DRY,1.75,19.20,8.0,778.00,0.5
2020-08-17,00:30:00,DRY,2.40,19.33,7.3,778.00,1.2
2020-08-17,00:35:00,DRY,2.30,19.50,14.0,778.00,0.7
2020-08-17,00:40:00,DRY,2.20,19.33,12.0,778.00,1.0
2020-08-17,00:45:00,DRY,2.10,19.25,14.0,778.00,1.5
2020-08-17,00:50:00,DRY,2.07,19.33,13.3,778.00,1.2
2020-08-17,00:55:00,DRY,1.85,19.15,14.0,778.00,1.1
2020-08-17,01:00:00,DRY,1.60,19.17,14.3,778.00,1.1
2020-08-17,01:05:00,DRY,2.20,19.20,14.0,778.00,1.1
2020-08-17,01:10:00,DRY,1.50,19.33,12.7,778.00,1.1
2020-08-17,01:15:00,DRY,2.45,19.20,12.0,778.00,1.3
2020-08-17,01:20:00,DRY,2.00,19.10,14.0,778.00,1.1
2020-08-17,01:25:00,DRY,2.00,19.05,14.0,778.00,0.7
2020-08-17,01:30:00,DRY,1.90,19.23,12.0,778.00,1.2
2020-08-17,01:35:00,DRY,1.80,19.20,12.5,778.00,0.8
2020-08-17,01:40:00,DRY,1.67,19.23,12.0,778.00,1.0
2020-08-17,01:45:00,DRY,1.50,19.15,12.0,778.00,1.5
2020-08-17,01:50:00,DRY,1.83,19.23,11.3,778.00,1.4
2020-08-17,01:55:00,DRY,1.60,19.20,11.5,778.00,0.8
2020-08-17,02:00:00,DRY,1.43,19.33,11.3,778.00,1.9
2020-08-17,02:05:00,DRY,1.60,19.40,10.5,778.00,1.1
2020-08-17,02:10:00,DRY,1.30,19.43,10.0,778.00,1.2
2020-08-17,02:15:00,DRY,1.55,19.30,10.0,778.00,2.0
2020-08-17,02:20:00,DRY,1.80,19.33,15.0,777.33,1.2
2020-08-17,02:25:00,DRY,1.75,19.30,16.0,777.50,1.4
2020-08-17,02:30:00,DRY,1.77,19.70,15.3,777.67,0.5
2020-08-17,02:35:00,DRY,1.30,19.85,14.0,777.00,0.6
2020-08-17,02:40:00,DRY,1.73,19.80,15.0,777.00,0.8
2020-08-17,02:45:00,DRY,1.65,19.70,16.5,777.00,0.6
2020-08-17,02:50:00,DRY,1.57,19.80,15.7,777.00,1.4
2020-08-17,02:55:00,DRY,1.65,19.85,15.5,777.00,1.5
2020-08-17,03:00:00,DRY,1.27,19.47,15.3,777.00,1.0
2020-08-17,03:05:00,DRY,0.90,19.55,14.0,777.00,1.9
2020-08-17,03:10:00,DRY,0.83,19.73,14.3,777.00,1.7
2020-08-17,03:15:00,DRY,0.70,19.60,14.0,777.00,1.4
2020-08-17,03:20:00,DRY,1.30,19.80,13.7,777.00,1.1
2020-08-17,03:25:00,DRY,1.25,19.75,14.5,777.00,1.1
2020-08-17,03:30:00,DRY,1.17,19.77,14.7,777.00,2.0
2020-08-17,03:35:00,DRY,1.05,19.85,14.0,777.00,1.7
2020-08-17,03:40:00,DRY,1.07,19.87,14.0,777.00,0.6
2020-08-17,03:45:00,DRY,0.80,19.90,13.5,777.00,0.7
2020-08-17,03:50:00,DRY,0.33,19.60,14.3,777.00,1.3
2020-08-17,03:55:00,DRY,0.20,19.35,15.5,777.00,1.1
2020-08-17,04:00:00,DRY,0.40,19.27,19.0,777.00,1.2
2020-08-17,04:05:00,DRY,0.35,19.20,20.0,777.00,0.7
2020-08-17,04:10:00,DRY,0.30,19.03,19.7,777.00,1.4
2020-08-17,04:15:00,DRY,0.25,19.00,19.0,777.00,1.6
2020-08-17,04:20:00,DRY,0.60,19.17,19.3,777.00,1.3
2020-08-17,04:25:00,DRY,0.75,19.00,20.0,777.00,1.0
2020-08-17,04:30:00,DRY,0.70,18.77,19.0,777.00,1.2
2020-08-17,04:35:00,DRY,1.20,18.65,18.5,777.00,0.4
2020-08-17,04:40:00,DRY,1.60,18.50,18.3,777.00,1.5
2020-08-17,04:45:00,DRY,1.50,18.90,18.0,777.00,1.5
2020-08-17,04:50:00,DRY,1.63,18.57,19.3,777.00,1.4
2020-08-17,04:55:00,DRY,1.40,18.45,18.5,777.00,1.1
2020-08-17,05:00:00,DRY,1.53,18.70,17.0,777.00,1.3
2020-08-17,05:05:00,DRY,1.35,18.85,17.0,777.00,1.9
2020-08-17,05:10:00,DRY,1.17,18.73,16.0,777.00,1.1
2020-08-17,05:15:00,DRY,0.95,18.60,17.0,777.00,1.1
2020-08-17,05:20:00,DRY,0.93,18.57,17.0,777.00,1.6
2020-08-17,05:25:00,DRY,1.30,18.75,17.0,777.00,0.5
2020-08-17,05:30:00,DRY,0.70,18.43,16.0,777.00,1.0
2020-08-17,05:35:00,DRY,1.10,18.45,14.5,777.00,1.8
2020-08-17,05:40:00,DRY,0.53,18.33,14.0,777.00,1.6
2020-08-17,05:45:00,DRY,1.00,18.35,13.5,777.00,1.2
2020-08-17,05:50:00,DRY,0.70,18.47,13.3,777.00,1.2
2020-08-17,05:55:00,DRY,1.05,18.45,13.0,777.00,1.6
2020-08-17,06:00:00,DRY,0.83,18.43,13.0,777.00,0.8
2020-08-17,06:05:00,DRY,0.85,18.50,13.0,777.00,1.3
2020-08-17,06:10:00,DRY,2.03,18.70,12.3,777.00,1.0
2020-08-17,06:15:00,DRY,1.85,18.70,12.0,777.00,0.4
2020-08-17,06:20:00,DRY,1.53,18.50,11.3,777.00,0.7
2020-08-17,06:25:00,DRY,1.45,18.40,11.0,777.00,1.0
2020-08-17,06:30:00,DRY,1.20,18.90,10.7,777.00,2.6
2020-08-17,06:35:00,DRY,0.90,19.15,10.0,777.00,4.3
2020-08-17,06:40:00,DRY,0.93,18.97,10.0,777.00,6.7
2020-08-17,06:45:00,DRY,1.90,19.00,11.0,777.00,8.5
2020-08-17,06:50:00,DRY,1.30,19.03,11.0,777.00,16.7
2020-08-17,06:55:00,DRY,1.25,19.15,11.0,777.00,30.1
2020-08-17,07:00:00,DRY,1.00,19.07,11.7,777.00,48.0
2020-08-17,07:05:00,DRY,0.95,19.00,12.0,777.00,69.0
2020-08-17,07:10:00,DRY,0.77,19.10,11.3,777.00,91.7
2020-08-17,07:15:00,DRY,1.30,19.25,9.5,777.00,111.3
2020-08-17,07:20:00,DRY,0.87,19.33,9.0,777.00,131.3
2020-08-17,07:25:00,DRY,1.05,19.40,9.0,777.00,151.7
2020-08-17,07:30:00,DRY,1.47,19.40,9.0,777.00,174.5
2020-08-17,07:35:00,DRY,0.80,19.40,9.0,777.00,197.9
2020-08-17,07:40:00,DRY,0.47,19.57,9.0,777.00,220.8
2020-08-17,07:45:00,DRY,0.85,19.95,9.0,777.00,243.3
2020-08-17,07:50:00,DRY,0.67,20.00,9.0,777.00,264.7
2020-08-17,07:55:00,DRY,1.00,19.90,9.0,777.00,288.8
2020-08-17,08:00:00,DRY,0.97,19.97,9.0,777.00,309.2
2020-08-17,08:05:00,DRY,1.00,20.10,9.0,777.00,332.1
2020-08-17,08:10:00,DRY,1.00,20.20,8.0,777.00,354.2
2020-08-17,08:15:00,DRY,1.00,20.35,8.0,777.00,377.1
2020-08-17,08:20:00,DRY,0.87,20.57,8.7,777.00,400.4
2020-08-17,08:25:00,DRY,1.20,20.35,12.5,777.00,423.6
2020-08-17,08:30:00,DRY,0.97,20.47,12.7,777.00,446.4
2020-08-17,08:35:00,DRY,0.35,20.60,11.0,777.00,469.3
2020-08-17,08:40:00,DRY,0.83,20.90,9.0,777.00,490.7
2020-08-17,08:45:00,DRY,1.15,20.70,10.5,777.00,512.6
2020-08-17,08:50:00,DRY,0.83,20.63,12.3,777.00,535.2
2020-08-17,08:55:00,DRY,0.60,21.00,11.5,777.00,557.2
2020-08-17,09:00:00,DRY,1.25,21.05,8.5,777.00,579.6
2020-08-17,09:05:00,DRY,1.05,21.05,11.5,777.00,598.8
2020-08-17,09:10:00,DRY,0.93,20.83,11.7,777.00,621.2
2020-08-17,09:15:00,DRY,1.25,20.80,11.5,777.00,641.3
2020-08-17,09:20:00,DRY,1.80,20.70,11.7,777.00,662.0
2020-08-17,09:25:00,DRY,1.60,20.50,11.5,777.00,681.0
2020-08-17,09:30:00,DRY,1.20,20.67,12.3,777.00,700.1
2020-08-17,09:35:00,DRY,1.00,20.75,11.5,777.00,720.4
2020-08-17,09:40:00,DRY,1.43,20.63,12.3,777.00,741.4
2020-08-17,09:45:00,DRY,1.40,20.55,12.0,777.00,760.8
2020-08-17,09:50:00,DRY,1.70,20.70,12.3,777.00,777.3
2020-08-17,09:55:00,DRY,1.95,20.65,13.5,777.00,795.0
2020-08-17,10:00:00,DRY,1.63,20.93,13.3,777.00,812.0
2020-08-17,10:05:00,DRY,1.30,20.90,13.0,777.00,831.1
2020-08-17,10:10:00,DRY,1.90,20.47,13.7,777.00,848.2
2020-08-17,10:15:00,DRY,2.00,20.50,13.5,777.00,865.2
2020-08-17,10:20:00,DRY,1.63,20.77,14.3,777.00,880.0
2020-08-17,10:25:00,DRY,1.45,20.80,14.0,777.00,898.2
2020-08-17,10:30:00,DRY,2.00,21.10,13.3,777.00,913.6
2020-08-17,10:35:00,DRY,1.95,20.70,15.5,777.00,927.0
2020-08-17,10:40:00,DRY,1.80,20.63,15.0,777.33,941.4
2020-08-17,10:45:00,DRY,1.30,20.60,15.0,777.00,957.6
2020-08-17,10:50:00,DRY,1.70,20.90,14.0,777.00,969.7
2020-08-17,10:55:00,DRY,1.00,21.60,10.0,777.50,985.6
2020-08-17,11:00:00,DRY,2.30,22.07,8.3,777.33,997.8
2020-08-17,11:05:00,DRY,1.75,22.50,13.0,777.00,1008.1
2020-08-17,11:10:00,DRY,2.70,22.47,10.7,777.00,1020.8
2020-08-17,11:15:00,DRY,2.65,22.40,12.0,777.00,1032.3
2020-08-17,11:20:00,DRY,2.57,22.80,15.3,777.33,1045.4
2020-08-17,11:25:00,DRY,1.70,22.40,16.0,778.00,1057.0
2020-08-17,11:30:00,DRY,2.60,22.07,13.7,777.67,1065.8
2020-08-17,11:35:00,DRY,2.40,22.70,9.0,778.00,1076.5
2020-08-17,11:40:00,DRY,1.90,23.37,9.7,778.00,1083.7
2020-08-17,11:45:00,DRY,2.45,23.20,10.5,778.00,1093.5
2020-08-17,11:50:00,DRY,2.03,22.83,15.0,778.00,1101.1
2020-08-17,11:55:00,DRY,2.30,22.90,16.0,778.00,1108.3
2020-08-17,12:00:00,DRY,2.00,22.70,15.0,778.00,1116.7
2020-08-17,12:05:00,DRY,2.15,22.70,13.0,778.00,1122.4
2020-08-17,12:10:00,DRY,2.70,22.17,16.3,778.00,1128.6
2020-08-17,12:15:00,DRY,2.05,22.45,15.5,777.50,1133.0
2020-08-17,12:20:00,DRY,2.07,22.47,13.7,778.00,1139.6
2020-08-17,12:25:00,DRY,2.70,22.40,15.0,778.00,1146.7
2020-08-17,12:30:00,DRY,2.03,22.50,15.0,778.00,1148.9
2020-08-17,12:35:00,DRY,2.20,22.75,13.0,778.00,1154.6
2020-08-17,12:40:00,DRY,2.23,23.23,12.3,778.00,1157.5
2020-08-17,12:45:00,DRY,3.30,23.75,11.5,778.00,1160.6
2020-08-17,12:50:00,DRY,2.13,23.50,14.3,778.00,1164.0
2020-08-17,12:55:00,DRY,2.15,23.15,12.5,778.00,1164.6
2020-08-17,13:00:00,DRY,2.60,23.47,13.3,778.00,1166.9
2020-08-17,13:05:00,DRY,2.05,22.75,13.5,778.00,1167.7
2020-08-17,13:10:00,DRY,2.47,22.47,16.3,778.00,1166.3
2020-08-17,13:15:00,DRY,2.25,22.65,9.5,778.00,1165.8
2020-08-17,13:20:00,DRY,1.97,21.93,8.0,778.00,1169.0
2020-08-17,13:25:00,DRY,3.30,22.55,14.0,778.00,1166.5
2020-08-17,13:30:00,DRY,3.30,22.20,14.0,778.00,1165.5
2020-08-17,13:35:00,DRY,2.50,22.30,14.0,778.00,1163.6
2020-08-17,13:40:00,DRY,2.87,22.70,12.3,778.00,1160.2
2020-08-17,13:45:00,DRY,2.95,22.50,12.5,778.00,1159.2
2020-08-17,13:50:00,DRY,3.37,22.73,12.3,778.00,1153.0
2020-08-17,13:55:00,DRY,2.80,22.80,13.5,778.00,1153.6
2020-08-17,14:00:00,DRY,2.43,22.80,10.3,778.00,1145.7
2020-08-17,14:05:00,DRY,3.45,22.80,11.5,778.00,1143.9
2020-08-17,14:10:00,DRY,3.10,21.83,11.3,778.00,1139.3
2020-08-17,14:15:00,DRY,3.85,22.55,12.0,778.00,1134.0
2020-08-17,14:20:00,DRY,2.07,21.80,13.3,778.00,1126.1
2020-08-17,14:25:00,DRY,2.60,21.90,14.5,778.00,1118.5
2020-08-17,14:30:00,DRY,2.90,21.97,12.0,778.00,1112.3
2020-08-17,14:35:00,DRY,3.05,21.65,13.5,777.50,1104.1
2020-08-17,14:40:00,DRY,3.50,22.00,12.7,778.00,1095.3
2020-08-17,14:45:00,DRY,3.25,22.00,14.5,778.00,1089.2
2020-08-17,14:50:00,DRY,3.30,21.93,14.7,778.00,1080.4
2020-08-17,14:55:00,DRY,3.85,22.10,12.5,778.00,1070.6
2020-08-17,15:00:00,DRY,3.57,21.93,12.7,777.67,1060.2
2020-08-17,15:05:00,DRY,4.20,21.95,14.5,777.00,1049.8
2020-08-17,15:10:00,DRY,4.03,21.87,13.0,777.33,1037.8
2020-08-17,15:15:00,DRY,4.60,22.15,14.0,777.00,1026.8
2020-08-17,15:20:00,DRY,3.80,21.90,13.3,777.00,1014.5
2020-08-17,15:25:00,DRY,4.20,22.15,14.0,777.00,1002.0
2020-08-17,15:30:00,DRY,4.47,22.13,12.0,777.00,988.7
2020-08-17,15:35:00,DRY,3.50,21.50,13.0,777.00,974.0
2020-08-17,15:40:00,DRY,4.03,21.67,12.3,777.00,960.3
2020-08-17,15:45:00,DRY,4.50,22.10,13.0,777.00,944.3
2020-08-17,15:50:00,DRY,4.50,21.87,10.0,777.00,931.9
2020-08-17,15:55:00,DRY,2.75,21.55,11.5,777.00,917.5
2020-08-17,16:00:00,DRY,3.37,21.37,13.0,777.00,900.4
2020-08-17,16:05:00,DRY,3.05,22.00,9.5,777.00,885.6
2020-08-17,16:10:00,DRY,3.57,21.70,12.3,777.00,867.9
2020-08-17,16:15:00,DRY,2.75,21.70,15.0,777.00,851.6
2020-08-17,16:20:00,DRY,3.37,21.63,13.0,777.00,835.7
2020-08-17,16:25:00,DRY,3.95,21.55,13.5,777.00,817.1
2020-08-17,16:30:00,DRY,3.77,21.50,14.3,777.00,799.0
2020-08-17,16:35:00,DRY,3.10,21.45,11.5,777.00,782.1
2020-08-17,16:40:00,DRY,3.73,21.60,14.7,777.00,763.2
2020-08-17,16:45:00,DRY,2.60,21.15,15.0,777.00,744.0
2020-08-17,16:50:00,DRY,2.83,21.37,13.3,777.00,726.1
2020-08-17,16:55:00,DRY,3.25,21.30,9.5,777.00,706.6
2020-08-17,17:00:00,DRY,3.30,21.50,11.0,777.00,686.6
2020-08-17,17:05:00,DRY,3.55,21.45,11.0,777.00,667.1
2020-08-17,17:10:00,DRY,3.40,21.30,11.7,777.00,648.4
2020-08-17,17:15:00,DRY,2.15,20.75,12.0,777.00,627.9
2020-08-17,17:20:00,DRY,3.10,21.07,14.0,777.00,606.4
2020-08-17,17:25:00,DRY,2.90,21.20,13.5,777.00,585.4
2020-08-17,17:30:00,DRY,3.37,21.10,10.0,777.00,564.5
2020-08-17,17:35:00,DRY,4.45,21.30,11.5,777.00,543.2
2020-08-17,17:40:00,DRY,3.47,21.10,8.7,777.00,521.5
2020-08-17,17:45:00,DRY,2.50,20.90,9.0,777.00,499.6
2020-08-17,17:50:00,DRY,2.43,20.77,7.7,777.00,476.7
2020-08-17,17:55:00,DRY,2.10,20.60,7.5,777.00,455.5
2020-08-17,18:00:00,DRY,2.90,20.67,8.7,777.00,431.6
2020-08-17,18:05:00,DRY,2.50,20.90,7.0,777.00,410.8
2020-08-17,18:10:00,DRY,3.60,21.17,9.0,777.00,388.4
2020-08-17,18:15:00,DRY,2.20,21.15,8.0,777.00,365.0
2020-08-17,18:20:00,DRY,3.23,21.10,9.0,777.00,342.8
2020-08-17,18:25:00,DRY,1.30,21.20,8.0,777.00,319.8
2020-08-17,18:30:00,DRY,3.03,20.93,7.7,777.00,297.5
2020-08-17,18:35:00,DRY,4.05,20.70,7.0,777.00,275.9
2020-08-17,18:40:00,DRY,3.23,20.57,7.0,777.00,253.5
2020-08-17,18:45:00,DRY,2.30,20.55,7.0,777.00,231.7
2020-08-17,18:50:00,DRY,2.33,20.73,6.7,777.00,125.7
2020-08-17,18:55:00,DRY,2.85,20.70,6.5,777.00,41.5
2020-08-17,19:00:00,DRY,2.10,20.50,6.7,777.00,36.7
2020-08-17,19:05:00,DRY,3.10,20.25,6.5,777.00,33.2
2020-08-17,19:10:00,DRY,1.47,20.17,7.0,777.00,31.2
2020-08-17,19:15:00,DRY,2.10,19.85,7.0,777.00,28.4
2020-08-17,19:20:00,DRY,2.07,20.03,7.0,777.00,26.3
2020-08-17,19:25:00,DRY,2.70,19.80,7.0,777.00,23.9
2020-08-17,19:30:00,DRY,2.93,19.70,6.7,777.00,20.6
2020-08-17,19:35:00,DRY,2.20,19.60,6.5,777.00,17.4
2020-08-17,19:40:00,DRY,3.17,19.57,6.3,777.00,14.4
2020-08-17,19:45:00,DRY,1.05,19.15,7.0,777.00,10.5
2020-08-17,19:50:00,DRY,1.50,18.80,7.0,777.00,7.0
2020-08-17,19:55:00,DRY,1.90,18.75,7.0,777.00,4.7
2020-08-17,20:00:00,DRY,2.10,18.50,7.7,777.33,2.5
2020-08-17,20:05:00,DRY,1.90,18.00,8.0,778.00,1.6
2020-08-17,20:10:00,DRY,1.80,18.07,8.0,777.67,1.6
2020-08-17,20:15:00,DRY,2.50,18.00,7.0,777.50,0.3
2020-08-17,20:20:00,DRY,1.23,18.13,7.0,778.00,0.9
2020-08-17,20:25:00,DRY,1.70,18.30,7.0,778.00,1.8
2020-08-17,20:30:00,DRY,1.43,18.40,7.0,778.00,0.8
2020-08-17,20:35:00,DRY,1.75,18.55,7.0,778.00,1.1
2020-08-17,20:40:00,DRY,0.83,18.47,7.0,778.00,1.6
2020-08-17,20:45:00,DRY,0.55,18.70,6.0,778.00,1.2
2020-08-17,20:50:00,DRY,1.63,18.73,6.3,778.00,1.1
2020-08-17,20:55:00,DRY,1.25,18.45,7.0,778.00,1.4
2020-08-17,21:00:00,DRY,0.87,18.33,6.7,778.00,1.9
2020-08-17,21:05:00,DRY,0.35,18.05,7.0,778.00,1.4
2020-08-17,21:10:00,DRY,0.90,17.93,7.0,778.00,1.4
2020-08-17,21:15:00,DRY,1.60,18.00,7.0,778.00,1.1
2020-08-17,21:20:00,DRY,1.03,18.10,6.7,778.00,1.2
2020-08-17,21:25:00,DRY,1.55,18.25,6.0,778.00,1.1
2020-08-17,21:30:00,DRY,1.50,18.57,6.0,778.00,1.4
2020-08-17,21:35:00,DRY,1.25,18.85,6.0,778.00,0.8
2020-08-17,21:40:00,DRY,4.03,19.07,5.7,778.00,1.2
2020-08-17,21:45:00,DRY,5.50,19.70,5.0,778.00,0.9
2020-08-17,21:50:00,DRY,2.63,19.80,5.7,778.00,1.1
2020-08-17,21:55:00,DRY,5.05,19.90,5.0,778.00,1.2
2020-08-17,22:00:00,DRY,5.20,19.83,5.0,778.00,1.2
2020-08-17,22:05:00,DRY,4.85,19.90,5.0,778.00,1.5
2020-08-17,22:10:00,DRY,3.67,19.87,5.0,778.00,1.0
2020-08-17,22:15:00,DRY,3.35,19.80,5.0,778.00,1.3
2020-08-17,22:20:00,DRY,4.37,19.80,5.3,778.00,2.1
2020-08-17,22:25:00,DRY,4.60,19.80,5.0,778.00,1.6
2020-08-17,22:30:00,DRY,4.37,19.93,5.0,778.00,1.4
2020-08-17,22:35:00,DRY,3.15,19.70,5.5,778.00,1.3
2020-08-17,22:40:00,DRY,3.97,19.83,5.3,778.00,1.5
2020-08-17,22:45:00,DRY,3.95,19.95,6.0,778.00,1.2
2020-08-17,22:50:00,DRY,4.40,19.97,5.7,778.00,1.3
2020-08-17,22:55:00,DRY,3.65,19.95,6.0,778.00,1.1
2020-08-17,23:00:00,DRY,3.90,20.03,6.0,778.00,1.1
2020-08-17,23:05:00,DRY,3.70,20.00,6.0,778.50,1.2
2020-08-17,23:10:00,DRY,2.50,19.93,6.0,778.67,1.4
2020-08-17,23:15:00,DRY,2.35,20.05,6.0,778.00,0.9
2020-08-17,23:20:00,DRY,2.93,19.93,6.0,778.00,1.1
2020-08-17,23:25:00,DRY,2.65,19.95,6.0,778.00,1.5
2020-08-17,23:30:00,DRY,3.73,19.97,6.0,778.00,1.2
2020-08-17,23:35:00,DRY,3.30,19.80,6.0,778.00,1.6
2020-08-17,23:40:00,DRY,2.93,19.83,6.0,778.00,1.7
2020-08-17,23:45:00,DRY,2.85,19.90,6.0,778.00,1.6
2020-08-17,23:50:00,DRY,2.10,19.70,6.0,778.00,1.6
2020-08-17,23:55:00,DRY,1.00,19.50,6.0,778.00,1.7
2020-08-18,00:00:00,DRY,0.70,19.57,6.0,778.00,1.5
2020-08-18,00:05:00,DRY,1.45,19.35,6.0,778.00,1.3
2020-08-18,00:10:00,DRY,1.87,19.43,6.0,778.00,0.7
2020-08-18,00:15:00,DRY,0.90,19.30,6.0,778.00,1.2
2020-08-18,00:20:00,DRY,0.63,18.93,6.7,778.00,0.9
2020-08-18,00:25:00,DRY,1.70,19.00,6.5,778.00,1.2
2020-08-18,00:30:00,DRY,1.03,19.20,6.0,778.33,0.7
2020-08-18,00:35:00,DRY,0.80,19.00,6.0,778.00,1.7
2020-08-18,00:40:00,DRY,2.87,19.00,6.7,778.00,1.5
2020-08-18,00:45:00,DRY,2.75,19.45,6.0,778.00,1.7
2020-08-18,00:50:00,DRY,3.27,19.33,6.0,778.00,1.1
2020-08-18,00:55:00,DRY,2.55,19.00,6.5,778.00,0.7
2020-08-18,01:00:00,DRY,3.83,18.97,6.3,778.00,1.4
2020-08-18,01:05:00,DRY,2.55,19.10,7.0,778.00,1.2
2020-08-18,01:10:00,DRY,3.93,19.13,6.0,778.00,1.5
2020-08-18,01:15:00,DRY,4.50,19.15,6.0,778.00,1.4
2020-08-18,01:20:00,DRY,3.63,19.07,6.0,778.00,1.6
2020-08-18,01:25:00,DRY,3.90,18.90,6.0,778.00,1.1
2020-08-18,01:30:00,DRY,3.67,18.87,6.0,778.00,1.0
2020-08-18,01:35:00,DRY,3.80,18.80,6.0,778.00,0.9
2020-08-18,01:40:00,DRY,3.07,18.80,6.0,778.00,1.4
2020-08-18,01:45:00,DRY,4.05,18.70,6.0,778.00,1.1
2020-08-18,01:50:00,DRY,3.70,18.80,6.0,778.00,1.3
2020-08-18,01:55:00,DRY,4.10,18.85,6.0,778.00,1.2
2020-08-18,02:00:00,DRY,3.63,18.80,6.0,778.00,2.0
2020-08-18,02:05:00,DRY,4.30,18.90,6.0,777.00,1.8
2020-08-18,02:10:00,DRY,4.00,18.77,6.0,777.00,1.5
2020-08-18,02:15:00,DRY,4.50,18.80,6.0,777.00,1.6
2020-08-18,02:20:00,DRY,3.80,18.70,6.0,777.00,1.3
2020-08-18,02:25:00,DRY,4.35,18.75,6.0,777.00,1.4
2020-08-18,02:30:00,DRY,4.67,18.70,6.0,777.00,1.2
2020-08-18,02:35:00,DRY,4.05,18.80,6.0,777.00,1.6
2020-08-18,02:40:00,DRY,3.77,18.73,6.0,777.00,1.3
2020-08-18,02:45:00,DRY,3.50,18.70,6.0,777.00,1.6
2020-08-18,02:50:00,DRY,3.93,18.73,6.0,777.00,1.0
2020-08-18,02:55:00,DRY,4.10,18.70,6.0,777.00,1.2
2020-08-18,03:00:00,DRY,4.63,18.67,6.0,777.00,1.0
2020-08-18,03:05:00,DRY,3.65,18.60,6.0,777.00,1.0
2020-08-18,03:10:00,DRY,4.23,18.53,5.3,777.00,1.5
2020-08-18,03:15:00,DRY,5.30,18.50,5.0,777.00,1.4
2020-08-18,03:20:00,DRY,4.10,18.53,5.0,777.00,1.1
2020-08-18,03:25:00,DRY,4.20,18.40,5.0,777.00,1.4
2020-08-18,03:30:00,DRY,5.40,18.43,4.7,777.00,1.3
2020-08-18,03:35:00,DRY,4.35,18.50,5.0,777.00,1.1
2020-08-18,03:40:00,DRY,5.07,18.43,4.3,777.00,1.3
2020-08-18,03:45:00,DRY,4.50,18.50,5.0,777.00,1.1
2020-08-18,03:50:00,DRY,4.30,18.43,4.3,777.00,1.1
2020-08-18,03:55:00,DRY,5.35,18.55,5.0,777.00,1.4
2020-08-18,04:00:00,DRY,4.27,18.57,5.0,777.00,0.9
2020-08-18,04:05:00,DRY,4.40,18.60,5.0,777.00,2.0
2020-08-18,04:10:00,DRY,4.57,18.70,5.0,777.00,2.3
2020-08-18,04:15:00,DRY,4.10,18.60,6.0,777.00,1.5
2020-08-18,04:20:00,DRY,3.97,18.63,6.0,777.00,1.4
2020-08-18,04:25:00,DRY,4.50,18.70,6.0,777.00,1.2
2020-08-18,04:30:00,DRY,3.83,18.67,6.0,777.00,1.5
2020-08-18,04:35:00,DRY,3.95,18.60,6.0,777.00,1.0
2020-08-18,04:40:00,DRY,4.10,18.63,6.0,777.00,1.2
2020-08-18,04:45:00,DRY,4.90,18.70,6.0,777.00,1.5
2020-08-18,04:50:00,DRY,4.10,18.67,6.3,777.00,1.5
2020-08-18,04:55:00,DRY,4.20,18.55,6.5,777.00,1.1
2020-08-18,05:00:00,DRY,4.13,18.60,7.0,777.00,1.4
2020-08-18,05:05:00,DRY,3.85,18.70,6.0,777.00,2.3
2020-08-18,05:10:00,DRY,3.63,18.50,6.0,777.00,1.4
2020-08-18,05:15:00,DRY,3.35,18.55,6.5,777.00,1.0
2020-08-18,05:20:00,DRY,3.50,18.60,6.3,777.00,0.8
2020-08-18,05:25:00,DRY,4.75,18.45,6.5,777.00,1.3
2020-08-18,05:30:00,DRY,4.20,18.57,7.0,777.00,1.2
2020-08-18,05:35:00,DRY,3.95,18.65,7.0,777.00,1.3
2020-08-18,05:40:00,DRY,4.43,18.60,6.0,777.00,1.2
2020-08-18,05:45:00,DRY,4.70,18.50,6.0,777.00,1.6
2020-08-18,05:50:00,DRY,4.23,18.57,6.3,777.00,1.5
2020-08-18,05:55:00,DRY,4.50,18.60,6.0,777.00,1.2
2020-08-18,06:00:00,DRY,4.30,18.67,6.0,777.00,1.5
2020-08-18,06:05:00,DRY,3.95,18.55,6.0,777.00,2.0
2020-08-18,06:10:00,DRY,4.27,18.50,6.0,777.00,2.0
2020-08-18,06:15:00,DRY,4.10,18.55,7.0,777.00,1.5
2020-08-18,06:20:00,DRY,4.33,18.57,7.0,777.00,1.5
2020-08-18,06:25:00,DRY,4.10,18.55,6.5,777.00,1.8
2020-08-18,06:30:00,DRY,3.87,18.53,7.0,777.00,2.6
2020-08-18,06:35:00,DRY,4.80,18.60,7.0,777.00,3.8
2020-08-18,06:40:00,DRY,4.40,18.73,7.0,777.00,6.2
2020-08-18,06:45:00,DRY,5.00,18.80,7.0,777.00,10.6
2020-08-18,06:50:00,DRY,4.10,18.70,7.0,777.00,20.6
2020-08-18,06:55:00,DRY,4.15,18.80,7.0,777.00,36.3
2020-08-18,07:00:00,DRY,3.73,18.83,7.0,777.00,56.5
2020-08-18,07:05:00,DRY,3.65,19.00,7.0,777.00,82.1
2020-08-18,07:10:00,DRY,3.83,19.03,7.0,777.00,106.2
2020-08-18,07:15:00,DRY,3.55,19.15,7.0,777.00,125.5
2020-08-18,07:20:00,DRY,4.13,19.20,7.0,777.00,147.0
2020-08-18,07:25:00,DRY,4.45,19.25,7.0,777.00,167.9
2020-08-18,07:30:00,DRY,4.87,19.37,7.0,777.00,189.4
2020-08-18,07:35:00,DRY,4.80,19.40,7.0,777.00,210.9
2020-08-18,07:40:00,DRY,4.90,19.50,7.0,777.00,234.1
2020-08-18,07:45:00,DRY,5.30,19.55,7.0,777.00,256.1
2020-08-18,07:50:00,DRY,4.80,19.63,7.0,777.00,279.7
2020-08-18,07:55:00,DRY,5.00,19.70,7.0,777.00,301.8
2020-08-18,08:00:00,DRY,3.40,19.80,7.0,777.00,323.8
2020-08-18,08:05:00,DRY,3.95,19.90,7.0,777.00,346.4
2020-08-18,08:10:00,DRY,4.03,20.00,7.0,777.00,369.1
2020-08-18,08:15:00,DRY,4.05,20.15,7.0,777.00,391.3
2020-08-18,08:20:00,DRY,4.33,20.23,7.0,777.00,414.2
2020-08-18,08:25:00,DRY,4.90,20.35,7.0,777.00,436.9
2020-08-18,08:30:00,DRY,4.47,20.33,7.0,777.00,459.5
2020-08-18,08:35:00,DRY,4.50,20.45,7.0,777.00,481.9
2020-08-18,08:40:00,DRY,3.70,20.53,7.0,777.00,504.2
2020-08-18,08:45:00,DRY,4.45,20.65,7.0,777.00,526.1
2020-08-18,08:50:00,DRY,4.70,20.67,7.0,777.00,548.1
2020-08-18,08:55:00,DRY,3.55,20.85,7.0,777.00,568.2
2020-08-18,09:00:00,DRY,4.17,20.90,7.0,777.00,590.9
2020-08-18,09:05:00,DRY,4.10,21.00,7.0,777.00,612.2
2020-08-18,09:10:00,DRY,4.60,21.13,7.0,777.00,633.0
2020-08-18,09:15:00,DRY,3.65,21.00,7.0,777.00,654.1
2020-08-18,09:20:00,DRY,4.67,21.03,7.0,777.00,674.1
2020-08-18,09:25:00,DRY,4.00,21.15,7.0,777.00,694.0
2020-08-18,09:30:00,DRY,4.33,21.27,6.7,777.00,713.8
2020-08-18,09:35:00,DRY,3.85,21.30,7.0,777.00,733.0
2020-08-18,09:40:00,DRY,4.27,21.33,7.0,777.00,751.4
2020-08-18,09:45:00,DRY,4.40,21.70,7.5,777.00,770.5
2020-08-18,09:50:00,DRY,4.27,21.53,7.0,777.00,788.9
2020-08-18,09:55:00,DRY,3.80,21.50,7.0,777.00,806.9
2020-08-18,10:00:00,DRY,5.10,21.60,7.0,777.00,823.7
2020-08-18,10:05:00,DRY,5.20,21.55,7.5,777.00,840.9
2020-08-18,10:10:00,DRY,4.13,21.73,7.3,777.33,857.7
2020-08-18,10:15:00,DRY,3.80,21.90,8.0,777.00,875.5
2020-08-18,10:20:00,DRY,3.90,21.93,8.0,777.00,890.6
2020-08-18,10:25:00,DRY,4.10,21.70,8.5,777.00,904.7
2020-08-18,10:30:00,DRY,4.23,21.97,7.7,777.00,921.4
2020-08-18,10:35:00,DRY,4.40,21.80,10.0,778.00,937.1
2020-08-18,10:40:00,DRY,3.53,21.70,10.0,777.33,950.7
2020-08-18,10:45:00,DRY,5.25,21.85,11.0,777.50,964.5
2020-08-18,10:50:00,DRY,4.50,21.67,10.0,777.33,978.1
2020-08-18,10:55:00,DRY,4.50,21.65,11.0,778.00,991.4
2020-08-18,11:00:00,DRY,3.73,22.03,9.0,777.67,1004.5
2020-08-18,11:05:00,DRY,3.85,22.20,11.0,778.00,1015.0
2020-08-18,11:10:00,DRY,4.40,22.23,11.3,778.00,1026.7
2020-08-18,11:15:00,DRY,3.20,22.50,9.5,778.00,1039.3
2020-08-18,11:20:00,DRY,5.03,22.13,10.7,778.00,1049.9
2020-08-18,11:25:00,DRY,4.05,22.35,11.0,778.00,1060.8
2020-08-18,11:30:00,DRY,4.10,22.33,10.7,778.00,1070.7
2020-08-18,11:35:00,DRY,4.55,22.40,13.0,778.00,1080.0
2020-08-18,11:40:00,DRY,3.60,22.30,12.3,778.00,1088.5
2020-08-18,11:45:00,DRY,3.45,22.05,13.5,778.00,1097.0
2020-08-18,11:50:00,DRY,3.03,22.27,12.0,778.00,1104.6
2020-08-18,11:55:00,DRY,3.35,22.35,13.5,778.00,1112.9
2020-08-18,12:00:00,DRY,3.77,22.00,13.0,778.00,1118.8
2020-08-18,12:05:00,DRY,3.55,22.50,13.5,778.00,1124.6
2020-08-18,12:10:00,DRY,3.47,22.17,15.7,778.00,1129.2
2020-08-18,12:15:00,DRY,3.75,22.95,13.0,778.00,1136.7
2020-08-18,12:20:00,DRY,2.73,22.47,10.3,778.00,1141.3
2020-08-18,12:25:00,DRY,4.15,22.40,10.5,778.00,1146.7
2020-08-18,12:30:00,DRY,3.73,22.40,10.3,777.67,1150.6
2020-08-18,12:35:00,DRY,4.40,22.80,12.5,778.00,1154.0
2020-08-18,12:40:00,DRY,4.40,22.87,12.3,778.00,1157.3
2020-08-18,12:45:00,DRY,4.35,22.60,16.0,778.00,1160.5